User: anonymous   Login
Location: Austin
(30.3000°N, 97.7500°W)
Time: 17:02:53
(UTC-05:00)
Language:

Cosmos 292 Rocket - Orbit

View from above orbital plane
View from above orbital plane
View from above satellite
View from above satellite

Ground track
Ground track

The orbit data is extracted from the following two-line orbital elements,

1 04071U 69070B   24205.38120473  .00001913  00000-0  36428-3 0  9995
2 04071  74.0472 192.2125 0015194 228.4402 131.5464 14.64735248917063
Epoch (UTC): 23 July 2024 09:08:56
Eccentricity: 0.0015194
inclination: 74.0472°
perigee height: 667 km
apogee height: 688 km
right ascension of ascending node: 192.2125°
argument of perigee: 228.4402°
revolutions per day: 14.64735248
mean anomaly at epoch: 131.5464°
orbit number at epoch: 91706

The dashed part of the orbit path shows where the satellite is in the earth's shadow,  

DLR